Zurück zum Katalog

STARLINK-35151

AktivKommunikationVLEO
NORAD 65624·PAYLOAD·🇺🇸 United States

Gestartet Sep 18, 2025 von Cape Canaveral Space Force Station

Loading…

Nächste Überflüge (nächste 24 Stunden)

TLE

AktuellSource: CelesTrak SupGP

Epoche: Sep 14, 2026, 22:34 UTC

1 65624C 25210C   26257.94076389 -.00044846  00000+0 -13251-2 0  2579
2 65624  53.1566 142.0520 0001202  84.0306 161.1759 15.34409823    11

Verfolge STARLINK-35151 in Echtzeit mit AllMySat

Download on the App Store